Location: CAO
(44.5093°N, 80.3921°W)
Time: 10:39:16
(UTC-05:00)

ARIANE 6 FM1 Upper Stage - Pass Details

Date: 21 January 2026
Orbit: 522 x 609 km, 62.0° (Epoch: 9 February)

Event Time Altitude Azimuth Distance (km) Brightness Sun altitude
Rises 18:56:01 0° 199° (SSW) 2,715 6.6 -17.7°
Reaches altitude 10° 18:58:20 10° 192° (SSW) 1,810 5.5 -18.1°
Maximum altitude 19:02:08 39° 123° (ESE) 812 3.1 -18.8°
Enters shadow 19:02:10 39° 121° (ESE) 812 3.1 -18.8°
